This is the latest recevied weather packets stored in our database for station/object OZ1IEP-5. If no packets are shown the sender has not sent any weather packets the latest 10 day(s).
| Time | Temp. | Humidity | Pressure | Rain* | Wind** | Luminosity | Snow |
|---|---|---|---|---|---|---|---|
| 1777722606 | 25° C | 35% | 1014.5 hPa | 0 mm | - | 789 W/m² | - |
| 1777722006 | 25.56° C | 36% | 1014.6 hPa | 0 mm | - | 751 W/m² | - |
| 1777721409 | 25.56° C | 37% | 1014.6 hPa | 0 mm | - | 796 W/m² | - |
| 1777720806 | 25° C | 39% | 1014.7 hPa | 0 mm | - | 798 W/m² | - |
| 1777720206 | 25° C | 38% | 1014.8 hPa | 0 mm | - | 800 W/m² | - |
| 1777719609 | 25° C | 40% | 1015 hPa | 0 mm | - | 800 W/m² | - |
| 1777719006 | 24.44° C | 40% | 1015.1 hPa | 0 mm | - | 793 W/m² | - |
| 1777718406 | 24.44° C | 42% | 1015.1 hPa | 0 mm | - | 795 W/m² | - |
| 1777717810 | 24.44° C | 41% | 1015.1 hPa | 0 mm | - | 789 W/m² | - |
| 1777717207 | 24.44° C | 43% | 1015.3 hPa | 0 mm | - | 788 W/m² | - |
| 1777716606 | 23.89° C | 45% | 1015.4 hPa | 0 mm | - | 780 W/m² | - |
| 1777716011 | 23.89° C | 45% | 1015.6 hPa | 0 mm | - | 770 W/m² | - |
| 1777715407 | 23.33° C | 44% | 1015.7 hPa | 0 mm | - | 745 W/m² | - |
| 1777714807 | 22.78° C | 47% | 1015.7 hPa | 0 mm | - | 749 W/m² | - |
| 1777714211 | 22.78° C | 50% | 1015.7 hPa | 0 mm | - | 719 W/m² | - |
| 1777713607 | 22.22° C | 50% | 1015.7 hPa | 0 mm | - | 290 W/m² | - |
| 1777713007 | 22.22° C | 51% | 1016 hPa | 0 mm | - | 552 W/m² | - |
| 1777712411 | 21.67° C | 53% | 1016 hPa | 0 mm | - | 684 W/m² | - |
| 1777711807 | 21.11° C | 52% | 1016.1 hPa | 0 mm | - | 670 W/m² | - |
| 1777711207 | 21.11° C | 54% | 1016.1 hPa | 0 mm | - | 666 W/m² | - |
| 1777710611 | 20.56° C | 56% | 1016.1 hPa | 0 mm | - | 649 W/m² | - |
| 1777710007 | 20° C | 56% | 1016.2 hPa | 0 mm | - | 628 W/m² | - |
| 1777709407 | 19.44° C | 58% | 1016.2 hPa | 0 mm | - | 529 W/m² | - |
| 1777708810 | 18.89° C | 58% | 1016.2 hPa | 0 mm | - | 276 W/m² | - |
| 1777708207 | 18.33° C | 60% | 1016.4 hPa | 0 mm | - | 279 W/m² | - |
* Rain latest hour (hover to see other rain measurements)
** Current wind speed in m/s (hover to see current wind gust speed)